Location: Glenbow
(51.1592°N, 114.3828°W)
Time: 14:18:29
(UTC+00:00)

Envisat - Pass Details

Date: 05 December 2021
Orbit: 764 x 766 km, 98.2° (Epoch: 28 January)

Event Time Altitude Azimuth Distance (km) Brightness Sun altitude
Rises 01:11:40 0° 216° (SW) 3,223 7.1 -14.8°
Reaches altitude 10° 01:15:00 10° 239° (WSW) 2,304 6.8 -15.3°
Maximum altitude 01:17:51 15° 274° (W) 1,983 6.2 -15.7°
Drops below altitude 10° 01:20:44 10° 308° (NW) 2,314 6.0 -16.1°
Sets 01:24:06 0° 332° (NNW) 3,247 6.4 -16.6°
